CFG3ME EDDM-LGZA

Flight info

Callsign CFG3ME
Flight time N/A
Altitude 35000
Route VAVOR4N VAVOR M867 RADIZ DCT GIMIX DCT SABAD DCT VAKSU DCT RODON DCT LIMJA DCT PITAS/N0452F330 UN732 KRK UT321 ASTUS
Aircraft A321/M-SDE3FGHIRWY/LB1

Departure

Time N/A
Airport Munich Airport (EDDM)

Arrival

Time 2026-04-23 15:05
Airport Zakynthos International Airport Dionysios Solomos (LGZA)
Time Latitude Longitude Altitude Speed Heading
2026-04-23 13:49 44.60872 15.82848 35159 ft 432 kts 137°
2026-04-23 13:50 44.58495 15.85461 35156 ft 436 kts 137°
2026-04-23 13:50 44.53682 15.90741 35145 ft 443 kts 138°
2026-04-23 13:51 44.48790 15.96098 35147 ft 449 kts 138°
2026-04-23 13:51 44.43825 16.01527 35131 ft 455 kts 138°
2026-04-23 13:52 44.38822 16.06978 35132 ft 456 kts 138°
2026-04-23 13:52 44.33850 16.12385 35131 ft 456 kts 138°
2026-04-23 13:53 44.28837 16.17817 35126 ft 456 kts 138°
2026-04-23 13:53 44.23814 16.23253 35159 ft 456 kts 137°
2026-04-23 13:54 44.18796 16.28682 35140 ft 456 kts 138°
2026-04-23 13:54 44.13777 16.34098 35141 ft 455 kts 138°
2026-04-23 13:55 44.08757 16.39497 35141 ft 455 kts 138°
2026-04-23 13:55 44.03776 16.44838 35134 ft 455 kts 138°
2026-04-23 13:56 43.98760 16.50202 35147 ft 454 kts 138°
2026-04-23 13:56 43.93752 16.55556 35131 ft 454 kts 138°
2026-04-23 13:57 43.88744 16.60890 35130 ft 453 kts 138°
2026-04-23 13:57 43.83746 16.66204 35125 ft 453 kts 138°
2026-04-23 13:58 43.78771 16.71485 35142 ft 452 kts 138°
2026-04-23 13:58 43.73768 16.76789 35135 ft 452 kts 138°
2026-04-23 13:59 43.68780 16.82064 35130 ft 451 kts 138°
2026-04-23 13:59 43.63799 16.87317 35124 ft 450 kts 138°
2026-04-23 14:00 43.59655 16.91673 35126 ft 450 kts 138°
2026-04-23 14:00 43.53866 16.97758 35121 ft 450 kts 138°
2026-04-23 14:01 43.48879 17.02991 35121 ft 450 kts 138°
2026-04-23 14:01 43.43893 17.08202 35130 ft 450 kts 138°
2026-04-23 14:02 43.38901 17.13405 35117 ft 450 kts 138°
2026-04-23 14:02 43.33916 17.18592 35114 ft 449 kts 138°
2026-04-23 14:03 43.28933 17.23767 35122 ft 449 kts 138°
2026-04-23 14:03 43.23977 17.28906 35116 ft 448 kts 137°
2026-04-23 14:04 43.19009 17.34051 35107 ft 447 kts 138°
2026-04-23 14:04 43.14035 17.39189 35105 ft 447 kts 138°
2026-04-23 14:05 43.09070 17.44312 35109 ft 447 kts 138°
2026-04-23 14:05 43.04095 17.49424 35110 ft 447 kts 137°
2026-04-23 14:06 42.99123 17.54520 35101 ft 446 kts 138°
2026-04-23 14:06 42.94155 17.59604 35096 ft 446 kts 138°
2026-04-23 14:07 42.89222 17.64657 35082 ft 446 kts 137°
2026-04-23 14:07 42.81766 17.72253 35093 ft 445 kts 137°
2026-04-23 14:08 42.76796 17.77306 35089 ft 445 kts 137°
2026-04-23 14:08 42.71824 17.82349 35072 ft 445 kts 137°
2026-04-23 14:09 42.66859 17.87380 35075 ft 445 kts 137°
2026-04-23 14:09 42.61908 17.92376 35067 ft 445 kts 138°
2026-04-23 14:10 42.56929 17.97386 35089 ft 445 kts 137°
2026-04-23 14:10 42.51952 18.02398 35083 ft 445 kts 137°
2026-04-23 14:11 42.46972 18.07415 35077 ft 445 kts 137°
2026-04-23 14:11 42.42017 18.12384 35075 ft 446 kts 137°
2026-04-23 14:12 42.37022 18.17373 35074 ft 446 kts 137°
2026-04-23 14:12 42.32031 18.22353 35082 ft 446 kts 137°
2026-04-23 14:13 42.27042 18.27323 35084 ft 446 kts 137°
2026-04-23 14:13 42.22047 18.32291 35083 ft 446 kts 137°
2026-04-23 14:14 42.17048 18.37251 35086 ft 446 kts 137°
2026-04-23 14:14 42.12077 18.42182 35107 ft 446 kts 138°
2026-04-23 14:15 42.07070 18.47129 35098 ft 446 kts 138°
2026-04-23 14:15 42.02055 18.52061 35092 ft 446 kts 138°
2026-04-23 14:16 41.97088 18.57069 35088 ft 445 kts 136°
2026-04-23 14:16 41.92217 18.62205 35087 ft 445 kts 136°
2026-04-23 14:17 41.87339 18.67345 35097 ft 446 kts 136°
2026-04-23 14:17 41.82444 18.72419 35071 ft 447 kts 137°
2026-04-23 14:18 41.77502 18.77504 35072 ft 448 kts 137°
2026-04-23 14:18 41.72561 18.82607 35079 ft 449 kts 137°
2026-04-23 14:19 41.70601 18.84644 35070 ft 448 kts 136°
2026-04-23 14:19 41.65846 18.89573 35067 ft 449 kts 137°
2026-04-23 14:20 41.64831 18.90613 35066 ft 450 kts 137°
2026-04-23 14:20 41.59846 18.95693 35068 ft 451 kts 138°
2026-04-23 14:21 41.55693 18.99925 35054 ft 452 kts 138°
2026-04-23 14:21 41.50692 19.05032 35054 ft 452 kts 138°
2026-04-23 14:22 41.45531 19.09861 35048 ft 458 kts 148°
2026-04-23 14:22 41.39572 19.13066 35068 ft 464 kts 156°
2026-04-23 14:23 41.33503 19.16032 35054 ft 465 kts 156°
2026-04-23 14:23 41.27427 19.18997 35049 ft 465 kts 156°
2026-04-23 14:24 41.21378 19.21938 35045 ft 466 kts 156°
2026-04-23 14:24 41.15280 19.24897 35046 ft 466 kts 156°
2026-04-23 14:25 41.09184 19.27852 35040 ft 466 kts 156°
2026-04-23 14:25 41.03087 19.30806 35033 ft 467 kts 156°
2026-04-23 14:26 40.96980 19.33757 35034 ft 467 kts 156°
2026-04-23 14:26 40.90867 19.36703 35021 ft 468 kts 156°
2026-04-23 14:27 40.84733 19.39663 35004 ft 469 kts 157°
2026-04-23 14:27 40.78592 19.42612 35008 ft 470 kts 156°
2026-04-23 14:28 40.72444 19.45543 35010 ft 470 kts 158°
2026-04-23 14:28 40.66314 19.48468 35002 ft 472 kts 158°
2026-04-23 14:29 40.60144 19.51415 35006 ft 472 kts 158°
2026-04-23 14:29 40.53958 19.54363 34990 ft 472 kts 158°
2026-04-23 14:30 40.47774 19.57302 34974 ft 474 kts 159°
2026-04-23 14:30 40.41553 19.60252 34976 ft 475 kts 159°
2026-04-23 14:31 40.35365 19.63167 34973 ft 476 kts 159°
2026-04-23 14:31 40.29126 19.66099 34975 ft 476 kts 159°
2026-04-23 14:32 40.22883 19.69043 34948 ft 477 kts 160°
2026-04-23 14:32 40.16642 19.71988 34957 ft 478 kts 160°
2026-04-23 14:33 40.10383 19.74927 34957 ft 478 kts 160°
2026-04-23 14:33 40.04115 19.77857 34951 ft 478 kts 161°
2026-04-23 14:34 39.97854 19.80807 34951 ft 479 kts 160°
2026-04-23 14:34 39.91643 19.83946 34957 ft 479 kts 159°
2026-04-23 14:35 39.85445 19.87142 34959 ft 478 kts 160°
2026-04-23 14:35 39.79236 19.90266 34953 ft 478 kts 161°
2026-04-23 14:36 39.73010 19.93346 34956 ft 479 kts 161°
2026-04-23 14:36 39.66817 19.96400 34958 ft 479 kts 161°
2026-04-23 14:37 39.60580 19.99477 34963 ft 479 kts 161°
2026-04-23 14:37 39.54340 20.02571 34947 ft 480 kts 161°
2026-04-23 14:38 39.48090 20.05658 34943 ft 481 kts 161°
2026-04-23 14:38 39.41833 20.08733 34944 ft 481 kts 161°
2026-04-23 14:39 39.35577 20.11811 34947 ft 481 kts 161°
2026-04-23 14:39 39.29347 20.14873 34942 ft 482 kts 162°
2026-04-23 14:40 39.23073 20.17937 34953 ft 482 kts 163°
2026-04-23 14:40 39.16786 20.20998 34959 ft 482 kts 162°
2026-04-23 14:41 39.10498 20.24072 34959 ft 482 kts 163°
2026-04-23 14:41 39.04263 20.27114 34969 ft 482 kts 163°
2026-04-23 14:42 38.97982 20.30166 34217 ft 486 kts 163°
2026-04-23 14:42 38.94796 20.31704 33142 ft 491 kts 164°
2026-04-23 14:42 38.91590 20.33252 32164 ft 493 kts 164°
2026-04-23 14:43 38.88372 20.34811 31243 ft 494 kts 165°
2026-04-23 14:43 38.85157 20.36369 30334 ft 495 kts 165°
2026-04-23 14:43 38.81938 20.37930 29317 ft 494 kts 165°
2026-04-23 14:43 38.78745 20.39481 27629 ft 488 kts 165°
2026-04-23 14:44 38.75588 20.41011 26346 ft 477 kts 165°
2026-04-23 14:44 38.72580 20.42475 25993 ft 447 kts 165°
2026-04-23 14:44 38.69766 20.43854 25769 ft 417 kts 166°
2026-04-23 14:44 38.67117 20.45145 25149 ft 400 kts 166°
2026-04-23 14:45 38.64584 20.46359 24373 ft 390 kts 166°
2026-04-23 14:45 38.62063 20.47557 23553 ft 382 kts 168°
2026-04-23 14:45 38.59580 20.48731 22611 ft 381 kts 168°
2026-04-23 14:45 38.57122 20.49895 22364 ft 370 kts 168°
2026-04-23 14:46 38.54749 20.51031 22229 ft 357 kts 168°
2026-04-23 14:46 38.52462 20.52133 22082 ft 345 kts 168°
2026-04-23 14:46 38.50237 20.53201 21767 ft 338 kts 168°
2026-04-23 14:46 38.48043 20.54248 21352 ft 335 kts 168°
2026-04-23 14:47 38.45867 20.55283 20940 ft 332 kts 167°
2026-04-23 14:47 38.43701 20.56311 20489 ft 330 kts 167°
2026-04-23 14:47 38.41556 20.57329 20075 ft 328 kts 166°
2026-04-23 14:47 38.39424 20.58345 19643 ft 326 kts 167°
2026-04-23 14:48 38.37332 20.59342 19280 ft 324 kts 167°
2026-04-23 14:48 38.35231 20.60344 18878 ft 322 kts 166°
2026-04-23 14:48 38.33135 20.61342 18448 ft 321 kts 165°
2026-04-23 14:48 38.31047 20.62335 17997 ft 319 kts 165°
2026-04-23 14:49 38.28979 20.63317 17576 ft 316 kts 165°
2026-04-23 14:49 38.26919 20.64296 17153 ft 314 kts 164°
2026-04-23 14:49 38.24881 20.65263 16749 ft 312 kts 164°
2026-04-23 14:49 38.22848 20.66224 16388 ft 311 kts 164°
2026-04-23 14:50 38.20827 20.67180 15997 ft 309 kts 164°
2026-04-23 14:50 38.18815 20.68134 15631 ft 307 kts 163°
2026-04-23 14:50 38.16813 20.69082 15234 ft 307 kts 163°
2026-04-23 14:50 38.14800 20.70035 14717 ft 310 kts 163°
2026-04-23 14:51 38.12767 20.70998 14238 ft 312 kts 163°
2026-04-23 14:51 38.10765 20.71947 13750 ft 308 kts 162°
2026-04-23 14:51 38.08745 20.72904 13209 ft 304 kts 162°
2026-04-23 14:51 38.06797 20.73824 12681 ft 300 kts 162°
2026-04-23 14:52 38.04850 20.74743 12148 ft 297 kts 162°
2026-04-23 14:52 38.02924 20.75651 11644 ft 293 kts 161°
2026-04-23 14:52 38.01020 20.76550 11133 ft 290 kts 161°
2026-04-23 14:52 37.99139 20.77436 10638 ft 286 kts 161°
2026-04-23 14:53 37.97279 20.78312 10144 ft 283 kts 161°
2026-04-23 14:53 37.95446 20.79174 9645 ft 280 kts 160°
2026-04-23 14:53 37.93632 20.80029 9110 ft 276 kts 160°
2026-04-23 14:53 37.91864 20.80860 8595 ft 273 kts 160°
2026-04-23 14:54 37.90091 20.81694 8072 ft 270 kts 160°
2026-04-23 14:54 37.88336 20.82517 7566 ft 269 kts 160°
2026-04-23 14:54 37.86579 20.83339 7061 ft 268 kts 160°
2026-04-23 14:54 37.84849 20.84149 6504 ft 261 kts 160°
2026-04-23 14:55 37.83159 20.84944 5895 ft 257 kts 160°
2026-04-23 14:55 37.81501 20.85724 5306 ft 251 kts 160°
2026-04-23 14:55 37.79899 20.86477 4903 ft 240 kts 160°
2026-04-23 14:55 37.78370 20.87193 4528 ft 230 kts 160°
2026-04-23 14:56 37.76894 20.87884 4300 ft 222 kts 160°
2026-04-23 14:56 37.75474 20.88560 4156 ft 210 kts 157°
2026-04-23 14:56 37.74237 20.89369 4008 ft 197 kts 151°
2026-04-23 14:56 37.73075 20.90186 3896 ft 185 kts 152°
2026-04-23 14:57 37.72238 20.90773 3820 ft 178 kts 152°
2026-04-23 14:57 37.71265 20.91456 3726 ft 175 kts 152°
2026-04-23 14:57 37.70197 20.92203 3625 ft 175 kts 152°
2026-04-23 14:58 37.69135 20.92947 3523 ft 174 kts 152°
2026-04-23 14:58 37.68074 20.93688 3431 ft 174 kts 152°
2026-04-23 14:58 37.67010 20.94428 3326 ft 174 kts 152°
2026-04-23 14:58 37.65945 20.95171 3229 ft 175 kts 152°
2026-04-23 14:59 37.64899 20.95901 3127 ft 174 kts 151°
2026-04-23 14:59 37.63840 20.96640 3027 ft 174 kts 151°
2026-04-23 14:59 37.62782 20.97381 2921 ft 174 kts 152°
2026-04-23 14:59 37.61725 20.98120 2851 ft 172 kts 152°
2026-04-23 15:00 37.60666 20.98839 2712 ft 174 kts 158°
2026-04-23 15:00 37.59493 20.99007 2561 ft 169 kts 195°
2026-04-23 15:00 37.58477 20.98340 2484 ft 165 kts 227°
2026-04-23 15:00 37.57944 20.97091 2375 ft 162 kts 261°
2026-04-23 15:01 37.58055 20.95732 2281 ft 159 kts 294°
2026-04-23 15:01 37.58722 20.94643 2225 ft 160 kts 325°
2026-04-23 15:01 37.59757 20.94153 2234 ft 161 kts 342°
2026-04-23 15:01 37.60842 20.93756 2197 ft 161 kts 340°
2026-04-23 15:02 37.61563 20.93486 2159 ft 157 kts 341°
2026-04-23 15:02 37.62921 20.92996 1992 ft 150 kts 343°
2026-04-23 15:02 37.63932 20.92630 1819 ft 150 kts 342°
2026-04-23 15:02 37.64931 20.92253 1654 ft 150 kts 341°
2026-04-23 15:03 37.65933 20.91872 1478 ft 150 kts 340°
2026-04-23 15:03 37.66928 20.91494 1354 ft 149 kts 342°
2026-04-23 15:03 37.67903 20.91127 1168 ft 149 kts 342°
2026-04-23 15:03 37.68896 20.90757 1019 ft 148 kts 343°
2026-04-23 15:04 37.69885 20.90390 823 ft 148 kts 343°
2026-04-23 15:04 37.70863 20.90021 677 ft 148 kts 343°
2026-04-23 15:04 37.71847 20.89652 492 ft 146 kts 345°
2026-04-23 15:04 37.72815 20.89265 364 ft 147 kts 343°
2026-04-23 15:05 37.73797 20.88901 170 ft 146 kts 345°
2026-04-23 15:05 37.74767 20.88548 24 ft 140 kts 343°
2026-04-23 15:05 37.75456 20.88290 22 ft 36 kts 343°
2026-04-23 15:05 37.75520 20.88285 21 ft 3 kts 79°
2026-04-23 15:06 37.75501 20.88323 21 ft 9 kts 124°
2026-04-23 15:06 37.75463 20.88393 21 ft 9 kts 129°
2026-04-23 15:06 37.75411 20.88427 22 ft 8 kts 163°
2026-04-23 15:06 37.75362 20.88445 20 ft 7 kts 163°
2026-04-23 15:07 37.75322 20.88460 20 ft 5 kts 163°
2026-04-23 15:07 37.75314 20.88483 20 ft 3 kts 76°
2026-04-23 15:07 37.75320 20.88508 20 ft 2 kts 74°
2026-04-23 15:07 37.75329 20.88547 22 ft 2 kts 73°
2026-04-23 15:08 37.75330 20.88550 22 ft 0 kts 73°